#timestamp,LO_Frequency,Hit,StdDev 
1565827215.3,286047022.4,N
1565827235.1,286047023.1,N
1565827255.9,286047024.9,N
1565827275.7,286047022.5,N
1565827295.5,286047024.3,N
1565827315.4,286047024.4,N
1565827335.2,286047023.7,N
1565827355.0,286047028.2,Y
1565827355.9,286047028.2,P
1565827375.8,286047012.1,N
1565827395.6,286047013.8,N
1565827415.5,286047011.4,N
1565827435.3,286047008.0,N
1565827455.1,286047010.4,N
1565827475.9,286047009.8,N
1565827495.7,286047011.2,N
1565827515.5,286047012.0,N
1565827535.4,286047011.2,N
1565827555.2,286047012.8,N
1565827575.1,286047013.1,N
1565827576.0,286047013.1,N
1565827595.8,286047013.3,N
1565827615.6,286047012.2,N
1565827635.5,286047011.2,N
1565827655.3,286047013.8,Y
1565827675.1,286047000.9,P
1565827695.9,286046998.2,N
1565827715.7,286046998.2,N
1565827735.6,286047002.4,N
1565827755.4,286047004.2,N
1565827775.2,286047003.9,N
1565827795.1,286047003.0,N
1565827796.0,286047003.0,N
1565827815.8,286047007.4,N
1565827835.6,286047008.8,N
1565827855.5,286047007.9,N
1565827875.3,286047008.1,N
1565827895.2,286047011.1,N
1565827915.9,286047011.6,N
1565827935.7,286047013.6,Y
1565827955.6,286047005.7,P
1565827975.4,286047004.1,P
1565827995.2,286047001.5,N
1565828015.1,286047001.4,N
1565828016.0,286047001.4,N
1565828035.8,286047005.8,Y
1565828055.7,286047003.2,P
1565828075.5,286047004.8,P
1565828095.3,286047006.2,P
1565828115.2,286047010.3,Y
1565828135.0,286047008.7,P
1565828135.9,286047008.7,P
1565828155.8,286047009.0,P
1565828175.6,286047005.1,N
1565828195.4,286047008.8,Y
1565828215.3,286047000.1,P
1565828235.1,286046998.9,N
1565828255.8,286046999.5,N
1565828275.7,286046998.1,N
1565828295.5,286047000.0,N
1565828315.4,286046998.4,N
1565828335.2,286046999.3,N
1565828355.0,286046999.4,N
1565828355.9,286046999.4,N
1565828375.8,286046997.0,N
1565828395.6,286046999.3,N
1565828415.4,286047001.0,N
1565828435.3,286046999.8,N
1565828455.1,286047002.2,N
1565828475.9,286047002.6,N
1565828495.7,286046998.1,N
1565828515.5,286047000.3,N
1565828535.4,286047003.9,N
1565828555.2,286047001.3,N
1565828575.0,286047002.6,N
1565828575.9,286047002.6,N
1565828595.8,286047003.5,N
1565828615.6,286047005.9,N
1565828635.5,286047005.4,N
1565828655.3,286047004.7,N
1565828675.2,286047003.4,N
1565828695.0,286047002.6,N
1565828695.9,286047002.6,N
1565828715.7,286047001.9,N
1565828735.6,286047005.9,N
1565828755.4,286047003.1,N
1565828775.3,286047006.4,N
1565828795.1,286047012.0,Y
1565828815.8,286047010.5,P
1565828835.7,286047011.8,N
1565828855.5,286047015.6,P
1565828875.3,286047012.5,N
1565828895.2,286047011.0,N
1565828915.0,286047012.2,N
1565828915.9,286047012.2,Y
1565828935.8,286047002.5,P
1565828955.6,286047002.5,N
1565828975.4,286047004.3,N
1565828995.3,286047006.8,N
1565829015.1,286047009.1,N
1565829035.9,286047009.2,N
1565829055.7,286047006.2,N
1565829075.6,286047008.0,N
1565829095.4,286047012.2,Y
1565829115.2,286047005.5,P
1565829135.1,286047003.4,P
1565829136.0,286047003.4,N
1565829155.8,286047003.7,N
1565829175.6,286047002.1,N
1565829195.5,286047002.1,N
1565829215.3,286047003.2,N
1565829235.2,286047003.2,N
1565829255.9,286047003.2,N
1565829275.7,286047007.2,Y
1565829295.6,286047002.2,P
1565829315.4,286047000.1,N
1565829335.3,286047001.0,N
1565829355.1,286047002.1,N
1565829356.0,286047002.1,N
1565829375.8,286047004.2,Y
1565829395.7,286047002.4,P
1565829415.5,286047002.5,P
1565829435.3,286047001.8,P
1565829455.2,286047005.8,Y
1565829475.0,286047001.6,P
1565829475.9,286047001.6,P
1565829495.8,286047001.9,P
1565829515.6,286047004.3,Y
1565829535.4,286047002.5,P
1565829555.3,286047001.4,P
1565829575.1,286047001.8,P
1565829595.9,286047002.9,Y
1565829615.7,286047001.4,P
1565829635.5,286047004.0,P
1565829655.4,286046999.8,N
1565829675.2,286047000.0,N
1565829695.0,286047001.9,N
1565829695.9,286047001.9,N
1565829715.8,286047000.1,N
1565829735.6,286047000.4,N
1565829755.5,286047003.8,N
1565829775.3,286047003.4,N
1565829795.1,286047003.7,N
1565829815.9,286047004.6,Y
1565829835.7,286047003.2,P
1565829855.5,286047001.9,N
1565829875.4,286047001.6,N
1565829895.2,286047003.5,Y
1565829915.1,286046998.2,P
1565829916.0,286046998.2,N
1565829935.8,286047000.2,N
1565829955.6,286047001.8,N
1565829975.5,286047005.8,Y
1565829995.3,286046999.7,P
1565830015.2,286047001.6,P
1565830035.9,286047000.0,N
1565830055.7,286047000.1,N
1565830075.6,286047002.8,Y
1565830095.4,286046999.5,P
1565830115.2,286046996.6,P
1565830135.1,286047001.2,N
1565830136.0,286047001.2,N
1565830155.8,286047000.3,N
1565830175.7,286047000.4,N
1565830195.5,286046998.9,N
1565830215.3,286046998.8,N
1565830235.2,286047001.5,N
1565830255.0,286047002.2,N
1565830255.9,286047002.2,N
1565830275.7,286046998.2,N
1565830295.6,286046999.9,N
1565830315.4,286047002.0,N
1565830335.3,286047004.1,N
1565830355.1,286047005.3,N
1565830356.0,286047005.3,N
1565830375.8,286047005.2,N
1565830395.7,286047005.0,N
1565830415.5,286047007.1,N
1565830435.4,286047004.9,N
1565830455.2,286047006.6,N
1565830475.0,286047008.8,Y
1565830475.9,286047008.8,P
1565830495.8,286047004.8,N
1565830515.6,286047003.2,N
1565830535.5,286047003.4,N
1565830555.7,286047003.4,N
1565830575.5,286047005.1,N
1565830595.4,286047002.2,N
1565830615.2,286047001.3,N
1565830635.1,286047006.8,Y
1565830636.0,286047006.8,P
1565830655.8,286047003.7,N
1565830675.6,286047004.4,P
1565830695.5,286047004.0,Y
1565830715.3,286046998.8,P
1565830735.2,286046995.3,N
1565830755.9,286046993.3,N
1565830775.7,286046990.1,N
1565830795.6,286046990.4,N
